Location: Beaver Brook Station
(42.3793°N, 71.2203°W)
Time: 19:33:55
(UTC+00:00)

X-37B - Visible Passes

Search period start: 22 January 2021 00:00
Search period end: 01 February 2021 00:00
Orbit: 385 x 390 km, 45.0° (Epoch: 20 January)

Date Brightness Start Highest point End Pass type
(mag) Time Alt. Az. Time Alt. Az. Time Alt. Az.
22 Jan 3.8 00:20:26 10° W 00:21:06 15° W 00:21:06 15° W visible
22 Jan 0.7 23:21:58 10° W 23:25:06 60° NNW 23:25:25 56° NNE visible
23 Jan 0.6 22:23:32 10° WSW 22:26:42 81° NNW 22:29:44 11° ENE visible
24 Jan 2.7 00:00:26 10° WNW 00:02:01 25° WNW 00:02:01 25° WNW visible
24 Jan 1.0 23:01:58 10° W 23:05:04 51° N 23:06:19 30° NE visible
25 Jan 1.4 23:40:22 10° WNW 23:42:56 46° NW 23:42:56 46° NW visible
26 Jan 1.0 22:41:57 10° WNW 22:45:03 49° N 22:47:18 17° ENE visible
27 Jan 3.5 00:18:39 10° WNW 00:19:35 18° WNW 00:19:35 18° WNW visible
27 Jan 0.5 23:20:17 10° WNW 23:23:27 69° NNE 23:24:00 53° ENE visible
28 Jan 0.8 22:21:54 10° WNW 22:25:01 54° N 22:28:08 10° E visible
28 Jan 2.1 23:58:35 10° WNW 00:00:48 37° WSW 00:00:48 37° WSW visible
29 Jan 0.6 23:00:11 10° WNW 23:03:21 82° SSW 23:05:25 20° ESE visible
30 Jan 4.1 00:37:28 10° W 00:37:43 11° WSW 00:37:43 11° WSW visible
30 Jan 2.3 23:38:38 10° W 23:41:27 29° SSW 23:42:28 24° S visible
31 Jan 1.4 22:40:07 10° WNW 22:43:12 50° SSW 22:46:17 10° SE visible
